Location: Peebles
(55.6412°N, 3.1714°W)
Time: 09:02:11
(UTC+01:00)

FENGYUN 1C DEB - Pass Details

Date: 08 July 2022
Orbit: 757 x 834 km, 99.1° (Epoch: 04 August)

Event Time Altitude Azimuth Distance (km) Brightness Sun altitude
Rises 01:46:30 0° 114° (ESE) 3,340 ? -11.6°
Reaches altitude 10° 01:49:19 10° 100° (E) 2,399 ? -11.6°
Maximum altitude 01:53:18 22° 51° (NE) 1,688 ? -11.5°
Drops below altitude 10° 01:57:14 10° 2° (N) 2,370 ? -11.4°
Sets 01:59:59 0° 348° (NNW) 3,290 ? -11.3°
